Time,TemperatureF,DewpointF,PressureIn,WindDirection,WindDirectionDegrees,WindSpeedMPH,WindSpeedGustMPH,Humidity,HourlyPrecipIn,Conditions,Clouds,dailyrainin,SoftwareType,DateUTC
2013-08-28 00:13:00,75.9,70.0,30.10,WNW,289,1.0,2.0,82,0.00,,,0.00,weatherlink.com 1.10,2013-08-28 04:13:00,
2013-08-28 00:28:00,75.7,70.0,30.11,West,265,1.0,3.0,83,0.00,,,0.00,weatherlink.com 1.10,2013-08-28 04:28:00,
2013-08-28 00:43:00,75.2,70.0,30.11,West,270,0.0,3.0,84,0.00,,,0.00,weatherlink.com 1.10,2013-08-28 04:43:00,
2013-08-28 00:58:00,74.6,70.0,30.11,WNW,286,2.0,2.0,86,0.00,,,0.00,weatherlink.com 1.10,2013-08-28 04:58:00,
2013-08-28 01:13:00,74.5,71.0,30.10,WNW,282,1.0,2.0,87,0.00,,,0.00,weatherlink.com 1.10,2013-08-28 05:13:00,
2013-08-28 01:28:00,73.9,70.0,30.10,SW,220,0.0,2.0,88,0.00,,,0.00,weatherlink.com 1.10,2013-08-28 05:28:00,
2013-08-28 01:43:00,74.1,70.0,30.10,SW,233,0.0,0.0,87,0.00,,,0.00,weatherlink.com 1.10,2013-08-28 05:43:00,
2013-08-28 01:58:00,73.5,70.0,30.10,SSE,154,1.0,3.0,88,0.00,,,0.00,weatherlink.com 1.10,2013-08-28 05:58:00,
2013-08-28 02:13:00,73.1,70.0,30.10,WNW,300,1.0,3.0,89,0.00,,,0.00,weatherlink.com 1.10,2013-08-28 06:13:00,
2013-08-28 02:28:00,72.9,70.0,30.09,WNW,286,1.0,2.0,91,0.00,,,0.00,weatherlink.com 1.10,2013-08-28 06:28:00,
2013-08-28 02:44:00,73.1,70.0,30.09,SSE,154,0.0,2.0,90,0.00,,,0.00,weatherlink.com 1.10,2013-08-28 06:44:00,
2013-08-28 02:59:00,72.6,70.0,30.08,South,176,4.0,4.0,90,0.00,,,0.00,weatherlink.com 1.10,2013-08-28 06:59:00,
2013-08-28 03:14:00,71.7,69.0,30.07,SSE,148,3.0,3.0,92,0.00,,,0.00,weatherlink.com 1.10,2013-08-28 07:14:00,
2013-08-28 03:29:00,71.5,69.0,30.07,WSW,258,1.0,2.0,93,0.00,,,0.00,weatherlink.com 1.10,2013-08-28 07:29:00,
2013-08-28 03:44:00,71.4,70.0,30.07,West,271,2.0,2.0,94,0.00,,,0.00,weatherlink.com 1.10,2013-08-28 07:44:00,
2013-08-28 03:59:00,71.9,70.0,30.07,WNW,295,2.0,3.0,94,0.00,,,0.00,weatherlink.com 1.10,2013-08-28 07:59:00,
2013-08-28 04:14:00,71.1,70.0,30.07,WNW,293,3.0,3.0,95,0.00,,,0.00,weatherlink.com 1.10,2013-08-28 08:14:00,
2013-08-28 04:29:00,70.6,69.0,30.07,NW,316,2.0,3.0,94,0.00,,,0.00,weatherlink.com 1.10,2013-08-28 08:29:00,
2013-08-28 04:44:00,71.1,70.0,30.07,WNW,283,2.0,2.0,96,0.00,,,0.00,weatherlink.com 1.10,2013-08-28 08:44:00,
2013-08-28 04:59:00,71.6,70.0,30.08,WNW,293,2.0,2.0,94,0.00,,,0.00,weatherlink.com 1.10,2013-08-28 08:59:00,
2013-08-28 05:14:00,71.1,70.0,30.08,West,265,0.0,1.0,95,0.00,,,0.00,weatherlink.com 1.10,2013-08-28 09:14:00,
2013-08-28 05:29:00,71.0,70.0,30.08,West,265,0.0,1.0,95,0.00,,,0.00,weatherlink.com 1.10,2013-08-28 09:29:00,
2013-08-28 05:44:00,70.4,69.0,30.08,SSW,195,1.0,4.0,96,0.00,,,0.00,weatherlink.com 1.10,2013-08-28 09:44:00,
2013-08-28 05:59:00,70.3,69.0,30.08,SE,137,1.0,3.0,96,0.00,,,0.00,weatherlink.com 1.10,2013-08-28 09:59:00,
2013-08-28 06:14:00,70.2,69.0,30.08,South,169,0.0,3.0,97,0.00,,,0.00,weatherlink.com 1.10,2013-08-28 10:14:00,
2013-08-28 06:29:00,70.2,69.0,30.09,SSE,165,0.0,1.0,97,0.00,,,0.00,weatherlink.com 1.10,2013-08-28 10:29:00,
2013-08-28 06:44:00,70.3,69.0,30.09,SW,214,0.0,2.0,97,0.00,,,0.00,weatherlink.com 1.10,2013-08-28 10:44:00,
2013-08-28 06:59:00,70.2,69.0,30.10,SSE,165,2.0,2.0,97,0.00,,,0.00,weatherlink.com 1.10,2013-08-28 10:59:00,
2013-08-28 07:14:00,70.3,69.0,30.10,SW,234,0.0,1.0,97,0.00,,,0.00,weatherlink.com 1.10,2013-08-28 11:14:00,
2013-08-28 07:29:00,70.3,69.0,30.11,SW,233,0.0,2.0,97,0.00,,,0.00,weatherlink.com 1.10,2013-08-28 11:29:00,
2013-08-28 07:44:00,69.8,69.0,30.11,NNW,327,1.0,1.0,97,0.00,,,0.00,weatherlink.com 1.10,2013-08-28 11:44:00,
2013-08-28 07:59:00,69.7,69.0,30.11,NW,326,1.0,2.0,97,0.00,,,0.00,weatherlink.com 1.10,2013-08-28 11:59:00,
2013-08-28 08:14:00,70.4,69.0,30.11,SW,232,1.0,3.0,96,0.00,,,0.00,weatherlink.com 1.10,2013-08-28 12:14:00,
2013-08-28 08:29:00,71.3,70.0,30.10,WSW,252,0.0,1.0,95,0.00,,,0.00,weatherlink.com 1.10,2013-08-28 12:29:00,
2013-08-28 08:44:00,73.0,71.0,30.10,SE,131,0.0,1.0,93,0.00,,,0.00,weatherlink.com 1.10,2013-08-28 12:44:00,
2013-08-28 08:59:00,74.9,72.0,30.10,East,101,0.0,2.0,89,0.00,,,0.00,weatherlink.com 1.10,2013-08-28 12:59:00,
2013-08-28 09:14:00,75.1,71.0,30.11,ESE,115,2.0,2.0,88,0.00,,,0.00,weatherlink.com 1.10,2013-08-28 13:14:00,
2013-08-28 09:29:00,76.7,72.0,30.10,ENE,67,0.0,3.0,86,0.00,,,0.00,weatherlink.com 1.10,2013-08-28 13:29:00,
2013-08-28 09:44:00,77.5,72.0,30.11,West,266,1.0,2.0,83,0.00,,,0.00,weatherlink.com 1.10,2013-08-28 13:44:00,
2013-08-28 09:59:00,77.4,72.0,30.10,West,281,1.0,2.0,84,0.00,,,0.00,weatherlink.com 1.10,2013-08-28 13:59:00,
2013-08-28 10:14:00,79.0,72.0,30.11,ENE,77,0.0,4.0,79,0.00,,,0.00,weatherlink.com 1.10,2013-08-28 14:14:00,
2013-08-28 10:29:00,79.7,72.0,30.10,West,276,1.0,1.0,78,0.00,,,0.00,weatherlink.com 1.10,2013-08-28 14:29:00,
2013-08-28 10:44:00,82.4,73.0,30.11,ENE,69,0.0,1.0,74,0.00,,,0.00,weatherlink.com 1.10,2013-08-28 14:44:00,
2013-08-28 10:59:00,81.4,73.0,30.11,SSE,157,0.0,3.0,75,0.00,,,0.00,weatherlink.com 1.10,2013-08-28 14:59:00,
2013-08-28 11:14:00,81.2,72.0,30.11,WNW,283,2.0,3.0,73,0.00,,,0.00,weatherlink.com 1.10,2013-08-28 15:14:00,
2013-08-28 11:29:00,84.0,73.0,30.11,ENE,76,0.0,2.0,70,0.00,,,0.00,weatherlink.com 1.10,2013-08-28 15:29:00,
2013-08-28 11:44:00,83.1,71.0,30.11,WNW,301,0.0,3.0,68,0.00,,,0.00,weatherlink.com 1.10,2013-08-28 15:44:00,
2013-08-28 12:00:00,83.5,71.0,30.11,NNE,33,0.0,3.0,67,0.00,,,0.00,weatherlink.com 1.10,2013-08-28 16:00:00,
2013-08-28 12:15:00,86.6,73.0,30.10,NW,307,0.0,5.0,64,0.00,,,0.00,weatherlink.com 1.10,2013-08-28 16:15:00,
2013-08-28 12:29:00,84.3,71.0,30.10,NW,309,1.0,5.0,64,0.00,,,0.00,weatherlink.com 1.10,2013-08-28 16:29:00,
2013-08-28 13:00:00,87.8,71.0,30.10,WNW,292,2.0,3.0,57,0.00,,,0.00,weatherlink.com 1.10,2013-08-28 17:00:00,
2013-08-28 13:14:00,86.8,70.0,30.09,NW,316,1.0,4.0,58,0.00,,,0.00,weatherlink.com 1.10,2013-08-28 17:14:00,
2013-08-28 13:29:00,86.3,69.0,30.09,NE,53,1.0,6.0,57,0.00,,,0.00,weatherlink.com 1.10,2013-08-28 17:29:00,
2013-08-28 13:44:00,87.2,71.0,30.08,NNE,33,1.0,4.0,59,0.00,,,0.00,weatherlink.com 1.10,2013-08-28 17:44:00,
2013-08-28 14:00:00,88.0,69.0,30.08,NNE,19,0.0,4.0,54,0.00,,,0.00,weatherlink.com 1.10,2013-08-28 18:00:00,
2013-08-28 14:30:00,86.1,70.0,30.07,NNW,330,1.0,3.0,58,0.00,,,0.00,weatherlink.com 1.10,2013-08-28 18:30:00,
2013-08-28 14:45:00,86.6,68.0,30.07,WNW,294,3.0,5.0,54,0.00,,,0.00,weatherlink.com 1.10,2013-08-28 18:45:00,
2013-08-28 15:00:00,87.6,69.0,30.06,NW,323,2.0,7.0,54,0.00,,,0.00,weatherlink.com 1.10,2013-08-28 19:00:00,
2013-08-28 15:15:00,87.6,71.0,30.05,North,9,1.0,4.0,58,0.00,,,0.00,weatherlink.com 1.10,2013-08-28 19:15:00,
2013-08-28 15:31:00,88.4,70.0,30.05,NNW,333,0.0,6.0,55,0.00,,,0.00,weatherlink.com 1.10,2013-08-28 19:31:00,
2013-08-28 15:46:00,90.3,71.0,30.05,WNW,283,4.0,6.0,53,0.00,,,0.00,weatherlink.com 1.10,2013-08-28 19:46:00,
2013-08-28 16:01:00,88.5,70.0,30.04,NE,51,0.0,5.0,55,0.00,,,0.00,weatherlink.com 1.10,2013-08-28 20:01:00,
2013-08-28 16:16:00,87.2,71.0,30.04,NNW,344,0.0,4.0,58,0.00,,,0.00,weatherlink.com 1.10,2013-08-28 20:16:00,
2013-08-28 16:31:00,87.2,70.0,30.03,WNW,303,2.0,8.0,57,0.00,,,0.00,weatherlink.com 1.10,2013-08-28 20:31:00,
2013-08-28 16:46:00,85.4,69.0,30.03,NNW,327,1.0,7.0,59,0.00,,,0.00,weatherlink.com 1.10,2013-08-28 20:46:00,
2013-08-28 17:01:00,86.4,71.0,30.03,NNE,23,0.0,2.0,60,0.00,,,0.00,weatherlink.com 1.10,2013-08-28 21:01:00,
2013-08-28 17:16:00,86.6,71.0,30.03,NW,304,3.0,5.0,59,0.00,,,0.00,weatherlink.com 1.10,2013-08-28 21:16:00,
2013-08-28 17:31:00,88.5,71.0,30.03,WNW,291,4.0,7.0,57,0.00,,,0.00,weatherlink.com 1.10,2013-08-28 21:31:00,
2013-08-28 17:46:00,86.8,71.0,30.03,WNW,296,2.0,10.0,59,0.00,,,0.00,weatherlink.com 1.10,2013-08-28 21:46:00,
2013-08-28 18:01:00,86.1,69.0,30.03,NNW,328,2.0,9.0,57,0.00,,,0.00,weatherlink.com 1.10,2013-08-28 22:01:00,
2013-08-28 18:16:00,87.7,71.0,30.02,WNW,297,1.0,6.0,58,0.00,,,0.00,weatherlink.com 1.10,2013-08-28 22:16:00,
2013-08-28 18:30:00,87.2,71.0,30.02,NNE,14,2.0,7.0,58,0.00,,,0.00,weatherlink.com 1.10,2013-08-28 22:30:00,
2013-08-28 18:46:00,85.9,70.0,30.02,WNW,292,6.0,10.0,59,0.00,,,0.00,weatherlink.com 1.10,2013-08-28 22:46:00,
2013-08-28 19:01:00,85.6,70.0,30.02,NW,313,3.0,8.0,60,0.00,,,0.00,weatherlink.com 1.10,2013-08-28 23:01:00,
2013-08-28 19:16:00,85.8,70.0,30.02,NW,305,2.0,7.0,60,0.00,,,0.00,weatherlink.com 1.10,2013-08-28 23:16:00,
2013-08-28 19:31:00,84.9,70.0,30.02,NNW,342,3.0,8.0,62,0.00,,,0.00,weatherlink.com 1.10,2013-08-28 23:31:00,
2013-08-28 19:46:00,83.9,70.0,30.03,NW,311,4.0,9.0,63,0.00,,,0.00,weatherlink.com 1.10,2013-08-28 23:46:00,
2013-08-28 20:01:00,82.8,70.0,30.03,NW,306,3.0,5.0,66,0.00,,,0.00,weatherlink.com 1.10,2013-08-29 00:01:00,
2013-08-28 20:16:00,82.3,70.0,30.03,NW,308,6.0,9.0,67,0.00,,,0.00,weatherlink.com 1.10,2013-08-29 00:16:00,
2013-08-28 20:31:00,81.7,71.0,30.03,West,265,4.0,6.0,69,0.00,,,0.00,weatherlink.com 1.10,2013-08-29 00:31:00,
2013-08-28 20:46:00,81.3,71.0,30.03,WNW,288,5.0,8.0,70,0.00,,,0.00,weatherlink.com 1.10,2013-08-29 00:46:00,
2013-08-28 21:01:00,80.7,71.0,30.03,WNW,302,3.0,7.0,72,0.00,,,0.00,weatherlink.com 1.10,2013-08-29 01:01:00,
2013-08-28 21:16:00,80.2,71.0,30.03,NW,304,2.0,6.0,73,0.00,,,0.00,weatherlink.com 1.10,2013-08-29 01:16:00,
2013-08-28 21:31:00,79.8,71.0,30.04,WNW,300,3.0,6.0,74,0.00,,,0.00,weatherlink.com 1.10,2013-08-29 01:31:00,
2013-08-28 21:46:00,79.6,71.0,30.04,WNW,298,5.0,6.0,74,0.00,,,0.00,weatherlink.com 1.10,2013-08-29 01:46:00,
2013-08-28 22:01:00,79.2,71.0,30.04,West,275,6.0,7.0,76,0.00,,,0.00,weatherlink.com 1.10,2013-08-29 02:01:00,
2013-08-28 22:16:00,78.8,71.0,30.05,WNW,299,4.0,6.0,77,0.00,,,0.00,weatherlink.com 1.10,2013-08-29 02:16:00,
2013-08-28 22:31:00,78.4,71.0,30.05,WNW,299,4.0,6.0,78,0.00,,,0.00,weatherlink.com 1.10,2013-08-29 02:31:00,
2013-08-28 22:46:00,78.2,71.0,30.05,WNW,282,3.0,6.0,79,0.00,,,0.00,weatherlink.com 1.10,2013-08-29 02:46:00,
2013-08-28 23:01:00,78.7,71.0,30.05,WNW,286,5.0,5.0,77,0.00,,,0.00,weatherlink.com 1.10,2013-08-29 03:01:00,
2013-08-28 23:16:00,79.0,71.0,30.05,West,267,4.0,7.0,76,0.00,,,0.00,weatherlink.com 1.10,2013-08-29 03:16:00,
2013-08-28 23:31:00,79.1,71.0,30.05,West,264,4.0,7.0,75,0.00,,,0.00,weatherlink.com 1.10,2013-08-29 03:31:00,
2013-08-28 23:45:00,78.8,71.0,30.05,West,273,2.0,6.0,76,0.00,,,0.00,weatherlink.com 1.10,2013-08-29 03:45:00,